Zurück zum Katalog

STARLINK-3820

AktivKommunikationVLEO
NORAD 52364·PAYLOAD·🇺🇸 United States

Gestartet Apr 29, 2022 von Cape Canaveral Space Force Station

Loading…

Nächste Überflüge (nächste 24 Stunden)

TLE

AktuellSource: CelesTrak SupGP

Epoche: Sep 14, 2026, 21:37 UTC

1 52364C 22045AK  26257.90118056  .00037191  00000+0  11287-2 0  2573
2 52364  53.1590  51.8561 0001252  80.9947  73.4234 15.33526524    18

Verfolge STARLINK-3820 in Echtzeit mit AllMySat

Download on the App Store